Weather History for Goteborg Save AFB, Sweden

Change the Weather History Date:

Sunday, December 30, 2012

  Actual Average Record
Temperature  
Mean Temperature 40 °F -  
Max Temperature 44 °F 33 °F - ()
Min Temperature 37 °F 25 °F - ()
Degree Days  
Heating Degree Days 24    
Moisture  
Dew Point 38 °F    
Average Humidity 90    
Maximum Humidity 100    
Minimum Humidity 81    
Precipitation  
Precipitation 0.00 in 0.08 in - ()
Sea Level Pressure  
Sea Level Pressure 29.47 in    
Wind  
Wind Speed 18 mph ()    
Max Wind Speed 28 mph    
Max Gust Speed -    
Visibility 5.7 miles    
Events Rain    
T = Trace of Precipitation, MM = Missing Value Source: Averaged Metar Reports

Daily Weather History Graph

Daily Weather History Graph

Search for Another Location

Airport:

Trip Planner

Search our weather history database for the weather conditions in past years. The results will help you decide how hot, cold, wet, or windy it might be!

Date:

Astronomy

Dec. 30, 2012 Rise Set
Actual Time 8:56 AM CET 3:33 PM CET
Civil Twilight 8:05 AM CET 4:24 PM CET
Nautical Twilight 7:13 AM CET 5:16 PM CET
Astronomical Twilight 6:26 AM CET 6:04 PM CET
Moon 6:23 PM CET (12/30) 9:25 AM CET (12/30)
Length of Visible Light 8h 18m
Length of Day
6h 37m
Waning Gibbous, 96% of the Moon is Illuminated
Dec 30
Waning Gibbous
Jan 5
Last Quarter
Jan 11
New
Jan 19
First Quarter
Jan 27
Full

Hourly Weather History & Observations

Time (CET) Temp. Windchill Dew Point Humidity Pressure Visibility Wind Dir Wind Speed Gust Speed Precip Events Conditions
12:20 AM 42.8 °F 33.1 °F 39.2 °F 87% 29.53 in - South 25.3 mph - N/A   Clear
12:50 AM 42.8 °F 33.3 °F 39.2 °F 87% 29.53 in - South 24.2 mph - N/A   Clear
1:20 AM 42.8 °F 33.3 °F 39.2 °F 87% 29.50 in 6.2 mi South 24.2 mph - N/A   Partly Cloudy
1:50 AM 44.6 °F 35.1 °F 39.2 °F 81% 29.50 in 6.2 mi South 27.6 mph - N/A   Overcast
2:20 AM 44.6 °F 35.3 °F 39.2 °F 81% 29.47 in 6.2 mi South 26.5 mph - N/A   Overcast
2:50 AM 42.8 °F 33.3 °F 39.2 °F 87% 29.47 in 6.2 mi South 24.2 mph - N/A   Overcast
3:20 AM 42.8 °F 33.1 °F 39.2 °F 87% 29.47 in - South 25.3 mph - N/A Rain Light Rain
3:50 AM 42.8 °F 33.1 °F 39.2 °F 87% 29.47 in 6.2 mi South 25.3 mph - N/A   Overcast
4:20 AM 41.0 °F 30.9 °F 39.2 °F 93% 29.47 in - South 24.2 mph - N/A   Overcast
4:50 AM 41.0 °F 31.1 °F 39.2 °F 93% 29.47 in 1.5 mi South 23.0 mph - N/A Rain Light Rain
5:20 AM 41.0 °F 32.2 °F 39.2 °F 93% 29.47 in 1.7 mi South 18.4 mph - N/A Rain Light Rain
5:50 AM 41.0 °F 32.2 °F 41.0 °F 100% 29.47 in 4.3 mi SSW 18.4 mph - N/A   Overcast
6:20 AM 41.0 °F 32.8 °F 41.0 °F 100% 29.47 in 3.7 mi SSW 16.1 mph - N/A   Overcast
6:50 AM 41.0 °F 32.5 °F 41.0 °F 100% 29.47 in - SSW 17.3 mph - N/A Rain Light Rain
7:20 AM 41.0 °F 33.1 °F 41.0 °F 100% 29.47 in 2.5 mi SSW 15.0 mph - N/A   Light Drizzle
7:50 AM 41.0 °F 33.5 °F 41.0 °F 100% 29.47 in 5.0 mi SSW 13.8 mph - N/A   Mostly Cloudy
8:50 AM 41.0 °F 33.1 °F 39.2 °F 93% 29.50 in 6.2 mi South 15.0 mph - N/A   Overcast
9:20 AM 41.0 °F 33.1 °F 39.2 °F 93% 29.50 in 6.2 mi South 15.0 mph - N/A   Overcast
9:50 AM 41.0 °F 33.1 °F 39.2 °F 93% 29.50 in 6.2 mi South 15.0 mph - N/A   Drizzle
10:20 AM 41.0 °F 33.9 °F 39.2 °F 93% 29.50 in 6.2 mi South 12.7 mph - N/A   Overcast
10:50 AM 41.0 °F 34.3 °F 39.2 °F 93% 29.47 in 6.2 mi South 11.5 mph - N/A   Mostly Cloudy
11:20 AM 41.0 °F 33.1 °F 39.2 °F 93% 29.47 in 6.2 mi South 15.0 mph - N/A   Overcast
11:50 AM 41.0 °F 32.5 °F 39.2 °F 93% 29.47 in 6.2 mi South 17.3 mph - N/A   Overcast
12:20 PM 41.0 °F 32.8 °F 39.2 °F 93% 29.47 in 6.2 mi South 16.1 mph - N/A   Overcast
12:50 PM 41.0 °F 32.8 °F 39.2 °F 93% 29.44 in 6.2 mi South 16.1 mph - N/A   Overcast
1:20 PM 41.0 °F 31.9 °F 39.2 °F 93% 29.44 in - South 19.6 mph - N/A Rain Rain
1:50 PM 39.2 °F 31.2 °F 37.4 °F 93% 29.44 in 5.0 mi South 13.8 mph - N/A Rain Light Rain
2:20 PM 41.0 °F 32.8 °F 37.4 °F 87% 29.44 in 6.2 mi South 16.1 mph - N/A   Overcast
2:50 PM 41.0 °F 32.5 °F 37.4 °F 87% 29.44 in 6.2 mi South 17.3 mph - N/A   Mostly Cloudy
3:20 PM 41.0 °F 31.6 °F 37.4 °F 87% 29.44 in 6.2 mi SSW 20.7 mph - N/A   Mostly Cloudy
3:50 PM 41.0 °F 31.6 °F 37.4 °F 87% 29.44 in 6.2 mi South 20.7 mph - N/A   Mostly Cloudy
4:20 PM 39.2 °F 29.8 °F 35.6 °F 87% 29.44 in 6.2 mi SSW 18.4 mph - N/A   Mostly Cloudy
4:50 PM 39.2 °F 30.5 °F 35.6 °F 87% 29.44 in 6.2 mi SSW 16.1 mph - N/A   Mostly Cloudy
5:20 PM 39.2 °F 30.2 °F 33.8 °F 81% 29.44 in 6.2 mi SSW 17.3 mph - N/A   Overcast
5:50 PM 37.4 °F 28.2 °F 33.8 °F 87% 29.44 in 6.2 mi SSW 16.1 mph - N/A   Mostly Cloudy
6:20 PM 39.2 °F 30.2 °F 35.6 °F 87% 29.44 in 6.2 mi SSW 17.3 mph - N/A   Mostly Cloudy
6:50 PM 39.2 °F 30.2 °F 35.6 °F 87% 29.44 in 6.2 mi SSW 17.3 mph - N/A   Overcast
7:20 PM 39.2 °F 30.5 °F 35.6 °F 87% 29.44 in 6.2 mi SSW 16.1 mph - N/A   Overcast
7:50 PM 37.4 °F 27.2 °F 35.6 °F 93% 29.44 in 6.2 mi SSW 19.6 mph - N/A   Overcast
8:20 PM 37.4 °F 27.5 °F 35.6 °F 93% 29.44 in 6.2 mi SSW 18.4 mph - N/A   Mostly Cloudy
8:50 PM 37.4 °F 27.5 °F 35.6 °F 93% 29.47 in 6.2 mi SSW 18.4 mph - N/A   Overcast
9:20 PM 37.4 °F 28.5 °F 33.8 °F 87% 29.47 in 6.2 mi SSW 15.0 mph - N/A   Overcast
9:50 PM 37.4 °F 28.9 °F 33.8 °F 87% 29.47 in 6.2 mi SSW 13.8 mph - N/A   Mostly Cloudy
10:20 PM 37.4 °F 28.5 °F 33.8 °F 87% 29.47 in 6.2 mi SSW 15.0 mph - N/A   Mostly Cloudy
10:50 PM 37.4 °F 28.2 °F 33.8 °F 87% 29.47 in 6.2 mi SSW 16.1 mph - N/A   Mostly Cloudy
11:20 PM 37.4 °F 27.8 °F 33.8 °F 87% 29.47 in 6.2 mi South 17.3 mph - N/A   Mostly Cloudy
11:50 PM 37.4 °F 28.5 °F 33.8 °F 87% 29.47 in 6.2 mi South 15.0 mph - N/A   Overcast